Regional Weather Roundup
Issued by NWS

Current Version | Previous Version | Text Only | Print | Product List | Glossary On
Versions: 1 2 3 4 5 6 7 8 9 10 11 12 13 14 15 16 17 18 19 20 21 22 23 24 25 26 27
000
ASUS45 KSLC 231710
RWRUT

UTAH REGIONAL WEATHER ROUNDUP
NATIONAL WEATHER SERVICE SALT LAKE CITY UT
1100 AM MDT THU OCT 23 2014

UTZ001>011-023>025-231800-

NORTHERN UTAH

CITY           SKY/WX    TMP DP  RH WIND       PRES   REMARKS
BRIGHAM CITY   PTSUNNY   54  33  45 CALM      30.16F
HILL AFB       PTSUNNY   59  30  33 E6        30.17R
LOGAN          SUNNY     46  33  60 W3        30.17S
OGDEN          PTSUNNY   60  30  32 VRB3      30.16R
PROVO AIRPORT  MOSUNNY   57  30  35 SE5       30.20F
SALT LAKE CITY PTSUNNY   60  32  34 E3        30.13F
VERNAL         MOSUNNY   51  38  60 CALM      30.27F
WENDOVER       MOSUNNY   50  32  50 E3        30.17R
HEBER CITY     SUNNY     48  32  53 CALM      30.22F
WEST JORDAN    SUNNY     61  37  41 S21G28    30.14F

$$

UTZ012>022-026-027-231800-

SOUTHERN/CENTRAL UTAH

CITY           SKY/WX    TMP DP  RH WIND       PRES   REMARKS
BLANDING       SUNNY     59  36  42 SE6       30.39R
BRYCE CANYON   SUNNY     57  23  26 SE6       30.37S
CEDAR CITY     MOSUNNY   61  32  33 SW5       30.24F
DELTA          SUNNY     57  30  35 S7        30.20S
HANKSVILLE       N/A     57  32  38 CALM      30.27S
MILFORD        SUNNY     60  31  33 S14       30.21S
MOAB/CYNLANDS  SUNNY     62  37  39 SE8       30.23F
PRICE          SUNNY     57  31  37 E6        30.29R
ST GEORGE      SUNNY     61  30  31 CALM      30.21F
KANAB            N/A     63  30  29 CALM      30.30S

$$

REGIONAL REPORTS     COLORADO/ARIZONA

CITY           SKY/WX    TMP DP  RH WIND       PRES   REMARKS
CRAIG, CO      SUNNY     54  36  50 E8        30.29S
GRAND JUNCTION SUNNY     60  39  45 SE7       30.27R
RIFLE          SUNNY     50  39  66 W3        30.31S
MONTROSE       SUNNY     57  36  45 SW3       30.32F
CORTEZ         SUNNY     59  36  42 CALM      30.32F
PAGE, AZ       SUNNY     63  31  30 N7        30.25R
GRAND CANYON   SUNNY     63  35  35 CALM      30.35R
KINGMAN        LGT RAIN  71  39  31 CALM      30.17R
FLAGSTAFF      SUNNY     63  34  33 S3        30.37S

$$

REGIONAL REPORTS    NEVADA/IDAHO/WYOMING

CITY           SKY/WX    TMP DP  RH WIND       PRES   REMARKS
LAS VEGAS, NV  PTSUNNY   73  32  22 SW3       30.08R
ELY            MOSUNNY   62  23  22 SW12      30.22R
ELKO           PTSUNNY   51  22  31 CALM      30.15S
POCATELLO, ID  SUNNY     60  31  33 NE8       30.12R
BURLEY         PTSUNNY   58  35  42 SW10      30.11R
EVANSTON, WY   MOSUNNY   54  26  34 SW14      30.23S
ROCK SPRINGS   SUNNY     46  28  49 N3        30.23F
KEMMERER       MOSUNNY   50  25  37 SW6       30.24S

$$



USA.gov is the U.S. government's official web portal to all federal, state and local government web resources and services.